Weather History for Kahului, HI

Change the Weather History Date:

Sunday, November 3, 2013

  Actual Average Record
Temperature  
Mean Temperature 80 °F 77 °F  
Max Temperature 86 °F 85 °F 93 °F (1950)
Min Temperature 73 °F 69 °F 59 °F (1970)
Degree Days  
Heating Degree Days 0 0  
Month to date heating degree days 0 0  
Since 1 July heating degree days 0 0  
Cooling Degree Days 15 12  
Month to date cooling degree days 43 36  
Year to date cooling degree days 3696 3412  
Growing Degree Days 28 (Base 50)    
Moisture  
Dew Point 66 °F    
Average Humidity 65    
Maximum Humidity 79    
Minimum Humidity 51    
Precipitation  
Precipitation 0.00 in 0.06 in 0.44 in (1964)
Month to date precipitation 0.09 0.16  
Year to date precipitation 9.04 12.44  
Snow  
Snow 0.00 in - - ()
Month to date snowfall 0.0  
Since 1 July snowfall 0.0  
Since 1 September snowfall 0.0  
Snow Depth 0.00 in    
Sea Level Pressure  
Sea Level Pressure 30.05 in    
Wind  
Wind Speed 15 mph (NE)    
Max Wind Speed 26 mph    
Max Gust Speed 35 mph    
Visibility 10 miles    
Events      
T = Trace of Precipitation, MM = Missing Value Source: NWS Daily Summary

Daily Weather History Graph

Daily Weather History Graph

Search for Another Location

Airport:

Trip Planner

Search our weather history database for the weather conditions in past years. The results will help you decide how hot, cold, wet, or windy it might be!

Date:

Astronomy

Nov. 03, 2013 Rise Set
Actual Time 6:29 AM HST 5:48 PM HST
Civil Twilight 6:06 AM HST 6:11 PM HST
Nautical Twilight 5:40 AM HST 6:38 PM HST
Astronomical Twilight 5:13 AM HST 7:04 PM HST
Moon 6:43 AM HST (11/3) 6:17 PM HST (11/3)
Length of Visible Light 12h 05m
Length of Day
11h 19m
New Moon, 0% of the Moon is Illuminated
Nov 3
New Moon
Nov 9
First Quarter
Nov 17
Full
Nov 25
Last Quarter
Dec 2
New

Hourly Weather History & Observations

Time (HST) Temp. Heat Index Dew Point Humidity Pressure Visibility Wind Dir Wind Speed Gust Speed Precip Events Conditions
12:54 AM 73.9 °F - 66.0 °F 76% 30.06 in 10.0 mi NE 13.8 mph - N/A   Clear
1:54 AM 73.9 °F - 66.0 °F 76% 30.04 in 10.0 mi NE 17.3 mph - N/A   Clear
2:54 AM 73.9 °F - 64.9 °F 73% 30.03 in 10.0 mi NE 19.6 mph - N/A   Clear
3:54 AM 73.9 °F - 66.0 °F 76% 30.04 in 10.0 mi NE 16.1 mph - N/A   Clear
4:54 AM 73.9 °F - 64.9 °F 73% 30.04 in 10.0 mi NE 15.0 mph - N/A   Clear
5:54 AM 73.9 °F - 64.9 °F 73% 30.06 in 10.0 mi NE 10.4 mph - N/A   Clear
6:54 AM 73.9 °F - 64.9 °F 73% 30.08 in 10.0 mi NE 9.2 mph - N/A   Clear
7:54 AM 77.0 °F - 66.0 °F 69% 30.09 in 10.0 mi NE 12.7 mph - N/A   Partly Cloudy
8:54 AM 80.1 °F 82.1 °F 66.0 °F 62% 30.10 in 10.0 mi ENE 17.3 mph 24.2 mph N/A   Partly Cloudy
9:54 AM 82.0 °F 83.8 °F 64.9 °F 56% 30.10 in 10.0 mi ENE 17.3 mph 24.2 mph N/A   Partly Cloudy
10:54 AM 82.9 °F 84.6 °F 64.9 °F 54% 30.08 in 10.0 mi NE 17.3 mph 23.0 mph N/A   Clear
11:54 AM 82.9 °F 84.6 °F 64.9 °F 54% 30.06 in 10.0 mi ENE 15.0 mph 28.8 mph N/A   Scattered Clouds
12:54 PM 84.9 °F 87.1 °F 66.0 °F 53% 30.03 in 10.0 mi NE 23.0 mph - N/A   Partly Cloudy
1:54 PM 84.9 °F 86.6 °F 64.9 °F 51% 30.00 in 10.0 mi NE 21.9 mph 27.6 mph N/A   Scattered Clouds
2:54 PM 84.0 °F 86.3 °F 66.0 °F 55% 30.00 in 10.0 mi NE 18.4 mph 28.8 mph N/A   Scattered Clouds
3:54 PM 82.0 °F 83.8 °F 64.9 °F 56% 30.01 in 10.0 mi NE 20.7 mph 25.3 mph N/A   Scattered Clouds
4:54 PM 81.0 °F 83.0 °F 66.0 °F 60% 30.01 in 10.0 mi NE 16.1 mph - N/A   Partly Cloudy
5:54 PM 78.1 °F - 66.0 °F 66% 30.02 in 10.0 mi NE 11.5 mph 20.7 mph N/A   Scattered Clouds
6:54 PM 77.0 °F - 66.9 °F 71% 30.04 in 10.0 mi NE 12.7 mph - N/A   Partly Cloudy
7:54 PM 75.9 °F - 68.0 °F 76% 30.06 in 10.0 mi NE 8.1 mph - N/A   Clear
8:54 PM 75.0 °F - 66.0 °F 73% 30.06 in 10.0 mi NE 10.4 mph - N/A   Clear
9:54 PM 75.0 °F - 66.0 °F 73% 30.07 in 10.0 mi NE 11.5 mph - N/A   Clear
10:54 PM 73.9 °F - 66.0 °F 76% 30.06 in 10.0 mi NE 10.4 mph - N/A   Clear
11:54 PM 73.0 °F - 64.9 °F 76% 30.05 in 10.0 mi NE 8.1 mph - N/A   Clear